Regional Weather Roundup
Issued by NWS

Home | Current Version | Previous Version | Graphics & Text | Print | Product List | Glossary On
Versions: 1 2 3 4 5 6 7 8 9 10 11 12 13 14 15 16 17 18 19 20 21 22 23 24 25 26 27 28 29 30 31 32 33 34 35 36 37 38 39 40 41 42 43 44 45 46 47 48 49 50
000
ASUS45 KABQ 260810
RWRNM
WEATHER ROUNDUP FOR NEW MEXICO
NATIONAL WEATHER SERVICE ALBUQUERQUE NM
200 AM MDT THU MAR 26 2015

NOTE: "FAIR" MEANS FEW OR NO CLOUDS BELOW 12,000 FEET AGL WITH NO
       SIGNIFICANT WEATHER OR OBSTRUCTIONS TO VISION.

      THIS PRODUCT IS RELEASED AS TWO VERSIONS.  ONE VERSION NEAR
      THE TOP OF THE HOUR CONTAINING PRELIMINARY DATA FROM ALBUQUERQUE
      AND OTHER STATIONS.  A FINAL VERSION WITH ADDITIONAL DATA IS
      ISSUED ABOUT 10 MINUTES AFTER THE HOUR.

NMZ501-503-504-510>518-260900-
NORTHWEST PLATEAU/NORTHCENTRAL MOUNTAINS

CITY           SKY/WX    TMP DP  RH WIND       PRES   REMARKS
FARMINGTON     CLEAR     34  10  37 N3        30.24R
LOS ALAMOS     CLEAR     34  20  57 S6        30.28S WCI  29
SANTA FE       CLEAR     31  23  72 SE7       30.28R WCI  24
TAOS           CLEAR     28  12  50 N5        30.27S WCI  23
ANGEL FIRE     FAIR      20  18  92 CALM      30.29F

$$
NMZ402-403-502-505>509-260900-
WESTCENTRAL MOUNTAINS/SOUTHWEST MOUNTAINS

CITY           SKY/WX    TMP DP  RH WIND       PRES   REMARKS
GALLUP         PTCLDY    27   8  44 CALM      30.29R
GRANTS         CLEAR     32   8  37 W5        30.30S WCI  28
SILVER CITY    CLEAR     41  23  48 NW9       30.18R

$$
NMZ407-409-411-412-260900-
SOUTHERN DESERTS

CITY           SKY/WX    TMP DP  RH WIND       PRES   REMARKS
LORDSBURG      FAIR      45  28  53 CALM      30.13R
DEMING         CLEAR     56  25  30 NE18      30.14R
LAS CRUCES     CLEAR     53  26  35 N13       30.14R
HOLLOMAN AFB   PTCLDY    49  30  47 NW18      30.12R
ALAMOGORDO     CLEAR     48  28  46 SW13      30.13R
T OR C         CLEAR     45  29  53 N18G29    30.20R

$$
NMZ519>523-260900-
CENTRAL VALLEYS/CENTRAL HIGHLANDS

CITY           SKY/WX    TMP DP  RH WIND       PRES   REMARKS
ALBUQUERQUE    CLEAR     43  25  49 E20       30.25S
DOUBLE EAGLE   CLEAR     34  20  57 W3        30.26F
MORIARTY ARPT  FAIR      29  22  76 CALM      30.31S
CLINES CORNERS CLEAR     31  19  61 E12       30.26S WCI  22
BELEN          FAIR      37  26  64 W7        30.25S WCI  32
SOCORRO        FAIR      42  28  57 N6        30.26S

$$
NMZ524>526-539-540-260900-
SOUTHCENTRAL MOUNTAINS

CITY           SKY/WX    TMP DP  RH WIND       PRES   REMARKS
RUIDOSO        CLEAR     30  25  80 S8        30.30S WCI  23

$$
NMZ527>531-260900-
NORTHEAST HIGHLANDS/NORTHEAST PLAINS

CITY           SKY/WX    TMP DP  RH WIND       PRES   REMARKS
LAS VEGAS      CLEAR     25  19  78 N9        30.28S WCI  15
RATON          PTCLDY    23  20  88 E8        30.26F WCI  14
CLAYTON        CLEAR     33  29  85 NW12      30.27S WCI  24

$$
NMZ532>537-260900-
EASTCENTRAL PLAINS

CITY           SKY/WX    TMP DP  RH WIND       PRES   REMARKS
TUCUMCARI      CLEAR     36  30  79 CALM      30.28R
CANNON AFB     MOCLDY    36  32  85 N17       30.25R WCI  25
CLOVIS AIRPORT CLEAR     36  28  75 N17       30.26R WCI  25

$$
NMZ028-029-538-260900-
SOUTHEAST PLAINS

CITY           SKY/WX    TMP DP  RH WIND       PRES   REMARKS
ROSWELL        PTCLDY    44  33  65 N9        30.29S
ARTESIA        CLEAR     43  32  65 N14       30.30R
CARLSBAD       CLEAR     47  33  58 NW17      30.26S
HOBBS          CLEAR     41  32  70 N18       30.24R


$$


USA.gov is the U.S. government's official web portal to all federal, state and local government web resources and services.